Regional Weather Roundup
Issued by NWS Upton, NY

Current Version | Previous Version | Graphics & Text | Print | Product List | Glossary Off
Versions: 1 2 3 4 5 6 7 8 9 10 11 12 13 14 15 16 17 18 19 20 21 22 23 24 25 26 27

000
ASUS41 KOKX 181908
RWROKX

REGIONAL WEATHER ROUNDUP
NATIONAL WEATHER SERVICE NEW YORK NY
300 PM EDT FRI AUG 18 2017

NOTE: "FAIR" INDICATES FEW OR NO CLOUDS BELOW 12,000 FEET WITH NO
SIGNIFICANT WEATHER AND/OR OBSTRUCTIONS TO VISIBILITY.

NYZ071-072-176-178-NJZ106-104-182000-
NEW YORK CITY METRO AREA

CITY           SKY/WX    TMP DP  RH WIND       PRES   REMARKS
Central Park   CLOUDY    80  76  87 CALM      29.85F
Bronx Bot Gard   N/A     82  73  74 SE9       29.84F
LaGuardia APRT LGT RAIN  82  77  84 S8        29.80F HX  90
Kennedy INTL   CLOUDY    77  77 100 S15       29.84F
Breezy Point     N/A     75 N/A N/A S10G16      N/A
Newark/Liberty CLOUDY    83  77  82 S7        29.81F HX  92
Teterboro      PTSUNNY   83  77  82 S12       29.80  HX  92
$$

NYZ177-179-078>081-182000-
LONG ISLAND NEW YORK

CITY           SKY/WX    TMP DP  RH WIND       PRES   REMARKS
Jones Beach      N/A     77 N/A N/A S7G14       N/A
Matinecock PT    N/A     79 N/A N/A SW10        N/A
Farmingdale    CLOUDY    80  75  84 SW18G25   29.83F
MacArthur/ISP  CLOUDY    81  76  84 SW15G25   29.83F
Shirley        CLOUDY    79  76  90 S13G21    29.85F
Mt Sinai Harb    N/A     81 N/A N/A SW9         N/A
Westhampton    CLOUDY    78  73  84 S12G18    29.87F
East Hampton   CLOUDY    75  73  91 S10G17    29.85F
Montauk          N/A     76  74  93 VRB7      29.87F
$$

NYZ052-065-067-182000-
HUDSON VALLEY

CITY           SKY/WX    TMP DP  RH WIND       PRES   REMARKS
White Plains   LGT RAIN  79  75  87 S9        29.83F
Larchmont Harb   N/A     77 N/A N/A S13         N/A
Croton On Huds   N/A     81 N/A N/A SE2         N/A
Newburgh       CLOUDY    81  75  83 W6        29.83F
Montgomery     CLOUDY    82  74  76 VRB3      29.80F
Poughkeepsie   CLOUDY    80  73  79 SE8       29.79F
Albany         LGT RAIN  74  72  93 CALM      29.79F FOG
$$

NJZ001-105-106-008-010-013-015-019>022-104-182000-
NEW JERSEY

CITY           SKY/WX    TMP DP  RH WIND       PRES   REMARKS
Newark/Liberty CLOUDY    83  77  82 S7        29.81F HX  92
Teterboro      PTSUNNY   83  77  82 S12       29.80  HX  92
Caldwell       CLOUDY    82  77  84 VRB3      29.81F HX  90
Somerville     PTSUNNY   85  79  82 VRB6      29.78F HX  98
Linden         CLOUDY    82  76  81 CALM      29.82F
Perth Amboy      N/A     79 N/A N/A SW9         N/A
Sussex         CLOUDY    82  76  81 S7        29.80F
Andover          N/A     82  74  76 S3        29.82F
Trenton        CLOUDY    83  77  82 SW7       29.80F HX  92
Millville      PTSUNNY   88  80  77 VRB7      29.80F HX 104
Atlantic City  MOSUNNY   86  78  77 S13G24    29.82F HX  98
Wrightstown    PTSUNNY   85  79  80 SW6       29.77F HX  98
Toms River     PTSUNNY   88  80  77 S13       29.82F HX 104
Belmar         CLOUDY    84  78  82 VRB6      29.83F HX  95
$$

PAZ047>061-062-071-182000-
EASTERN PENNSYLVANIA

CITY           SKY/WX    TMP DP  RH WIND       PRES   REMARKS
Philadelphia   PTSUNNY   86  76  71 SW5       29.79F HX  96
Allentown      CLOUDY    85  74  69 S9        29.79F HX  92
Scranton       LGT RAIN  79  75  87 W6        29.80F FOG
$$

CTZ002-004>006-009-010-012-RIZ004-006-007-MAZ004-011-015-182000-
SOUTHERN NEW ENGLAND
 IN CT

CITY           SKY/WX    TMP DP  RH WIND       PRES   REMARKS
Bradley INTL   CLOUDY    80  74  81 S9        29.82F
Hartford       CLOUDY    79  75  87 S6        29.82F
Danbury        CLOUDY    80  75  84 S8        29.84F
Wtrbury/Oxford LGT RAIN  75  74  96 S6        29.86F FOG
Norwalk Harbor   N/A     77 N/A N/A S9          N/A
Bridgeport     CLOUDY    79  74  84 SW10      29.82F
Meriden        CLOUDY    80  75  84 S14G21    29.82F
New Haven      CLOUDY    80  75  84 S10       29.83F
Chester        NOT AVBL
Groton         CLOUDY    73  71  93 S7        29.85F FOG
Wilimantic     LGT RAIN  77  74  90 S9        29.85F

 IN RI

CITY           SKY/WX    TMP DP  RH WIND       PRES   REMARKS
Providence     LGT RAIN  75  73  93 S13       29.88F
Block Island   CLOUDY    73  72  96 S10       29.88F
Westerly       LGT RAIN  74  73  97 S10       29.88F FOG
 IN MA

CITY           SKY/WX    TMP DP  RH WIND       PRES   REMARKS
Boston         CLOUDY    80  68  66 S21       29.84F
Worcester      CLOUDY    73  68  84 S14       29.88F
Westfield      CLOUDY    77  75  93 S7        29.81F FOG
Provincetown   CLOUDY    75  70  84 S13G22    29.90S
Nantucket      CLOUDY    69  69 100 S14       29.93F FOG
$$

ANZ330-335-338-340-345-350-353-355-182000-
COASTAL MARINE OBSERVATIONS


STATION/POSITION TIME  SKY/WX   TEMP    WIND        PRES    VSBY  WAVE
                                AIR SEA DIR/SP/G                  HT/PER
                 (UTC)          (F)     (DEG/KT/KT) (MB)    (MI)  (FT/S)
NY HARB ENTRANCE 1750            77 76  190/ 16/ 19 1010.0          3/ 5
GREAT SOUTH BAY  1830            77 78  210/ 12/ 16   N/A
23 SSW MONTAUK P 1750            74 71              1012.1          4/ 5
15 E BARNEGAT LI 1830               77                N/A           4/ 5
HUDSON CANYON    1750            77 75  180/ 16/ 17 1012.2          4/ 4
KINGS POINT      1830            78 76  210/ 10/ 11 1009.8
EXECUTION ROCKS  NOT AVBL
WESTERN LI SOUND NOT AVBL
CENTRAL LI SOUND NOT AVBL
EASTERN LI SOUND NOT AVBL
ROBBINS REEF     1830                   180/ 10/ 11 1010.6
$$


>>>>>>>>>>>>>>>>>>>>>>>>>>>> KEY <<<<<<<<<<<<<<<<<<<<<<<<<<<
>                                                          <
>     SKY/WX - Sky Condition/Present Weather               <
>     TMP    - Temperature in Fahrenheit                   <
>     DP     - Dew Point in Fahrenheit                     <
>     RH     - Relative Humidity in Percent                <
>     WIND   - Direction (from) and Speed in MPH           <
>     PRES   - Mean Sea Level Pressure (inches of Hg)      <
>     WCI    - Wind Chill Index                            <
>     VSB    - VISIBILITY IN MILES                         <
>     HX     - HEAT INDEX                                  <
>     TC     - TEMPERATURE IN CELSIUS                      <
>     VRB    - VARIABLE WIND DIRECTION                     <
>                                                          <
>>>>>>>>>>>>>>>>>>>>>>>>>>>> KEY <<<<<<<<<<<<<<<<<<<<<<<<<<<




USA.gov is the U.S. government's official web portal to all federal, state and local government web resources and services.